TimeCDT,TemperatureF,Dew PointF,Humidity,Sea Level PressureIn,VisibilityMPH,Wind Direction,Wind SpeedMPH,Gust SpeedMPH,PrecipitationIn,Events,Conditions,WindDirDegrees,DateUTC
12:53 AM,57.0,50.0,77,30.13,10.0,NE,3.5,-,N/A,,Partly Cloudy,50,2013-04-06 05:53:00
1:53 AM,55.0,50.0,83,30.13,10.0,Calm,Calm,-,N/A,,Partly Cloudy,0,2013-04-06 06:53:00
2:53 AM,53.1,48.9,86,30.12,10.0,Calm,Calm,-,N/A,,Clear,0,2013-04-06 07:53:00
3:53 AM,55.0,50.0,83,30.11,10.0,Calm,Calm,-,N/A,,Partly Cloudy,0,2013-04-06 08:53:00
4:53 AM,52.0,48.0,86,30.12,10.0,Calm,Calm,-,N/A,,Partly Cloudy,0,2013-04-06 09:53:00
5:53 AM,48.9,46.9,93,30.13,10.0,Calm,Calm,-,N/A,Fog,Shallow Fog,0,2013-04-06 10:53:00
6:53 AM,48.9,46.9,93,30.14,10.0,Calm,Calm,-,N/A,Fog,Shallow Fog,0,2013-04-06 11:53:00
7:53 AM,57.0,52.0,83,30.15,10.0,ESE,4.6,-,N/A,,Mostly Cloudy,110,2013-04-06 12:53:00
8:53 AM,63.0,53.1,70,30.15,10.0,SE,9.2,-,N/A,,Mostly Cloudy,130,2013-04-06 13:53:00
9:53 AM,66.0,50.0,56,30.15,10.0,SSE,11.5,-,N/A,,Mostly Cloudy,150,2013-04-06 14:53:00
10:53 AM,68.0,48.9,50,30.17,10.0,SSE,12.7,-,N/A,,Mostly Cloudy,150,2013-04-06 15:53:00
11:53 AM,70.0,52.0,53,30.17,10.0,South,8.1,-,N/A,,Mostly Cloudy,190,2013-04-06 16:53:00
12:53 PM,71.1,52.0,51,30.17,10.0,South,12.7,18.4,N/A,,Mostly Cloudy,180,2013-04-06 17:53:00
1:53 PM,71.1,52.0,51,30.15,10.0,SSE,12.7,-,N/A,,Mostly Cloudy,160,2013-04-06 18:53:00
2:53 PM,71.1,51.1,49,30.12,10.0,South,15.0,-,N/A,,Mostly Cloudy,170,2013-04-06 19:53:00
3:53 PM,70.0,52.0,53,30.11,10.0,South,8.1,-,N/A,,Mostly Cloudy,180,2013-04-06 20:53:00
4:53 PM,69.1,52.0,54,30.09,10.0,SSE,13.8,-,N/A,,Mostly Cloudy,160,2013-04-06 21:53:00
5:53 PM,70.0,53.1,55,30.09,10.0,SE,11.5,-,N/A,,Mostly Cloudy,140,2013-04-06 22:53:00
6:53 PM,66.9,52.0,59,30.08,10.0,SSE,10.4,-,N/A,,Scattered Clouds,150,2013-04-06 23:53:00
7:53 PM,64.0,52.0,65,30.08,10.0,SSE,6.9,-,N/A,,Mostly Cloudy,150,2013-04-07 00:53:00
8:53 PM,63.0,55.0,75,30.09,10.0,SE,5.8,-,N/A,,Mostly Cloudy,140,2013-04-07 01:53:00
9:53 PM,61.0,55.0,81,30.10,10.0,SE,4.6,-,N/A,,Scattered Clouds,130,2013-04-07 02:53:00
10:53 PM,60.1,54.0,80,30.10,10.0,SE,3.5,-,N/A,,Clear,140,2013-04-07 03:53:00
11:53 PM,59.0,55.0,87,30.09,10.0,SE,5.8,-,N/A,,Partly Cloudy,130,2013-04-07 04:53:00